Temp
60 58 59 59 59 59 61 62 67 63 61 63 63 63 63 62 62 62 59 58 56 56
58 57 57 58 58 58 59 63 61 61 61 60 62 62 61 61 60 59 58 57 56 53
56 57 57 56 56 56 56 56 56 56 57 60 60 60 59 58 57 56 55 54 53 49
53 54 55 54 54 53 53 53 55 56 54 55 57 57 56 54 54 53 49 48 47 44
51 51 50 50 51 51 50 51 51 52 54 54 53 53 52 50 49 47 45 43 42 40
47 47 46 46 47 48 47 47 47 48 49 50 49 48 47 46 43 43 42 42 41 40
44 44 43 44 44 43 44 45 47 47 46 46 44 43 41 42 40 40 40 41 40 40
43 43 43 43 41 41 41 42 44 44 43 44 44 43 40 40 38 37 36 37 37 37
43 43 42 42 41 41 40 41 42 41 41 41 43 44 43 39 36 36 35 34 34 35
42 41 40 40 38 37 37 37 37 38 38 38 41 43 41 39 34 33 32 32 32 33
39 38 37 37 36 36 36 35 34 34 35 37 39 40 40 38 33 32 32 32 32 32
37 36 36 35 34 35 34 33 33 33 33 33 36 39 38 34 32 32 32 34 36 36
37 36 34 35 34 34 34 33 33 33 31 36 29 40 39 35 33 30 32 31 33 39
38 36 35 34 33 33 33 30 28 30 28 31 34 35 41 41 33 31 30 30 29 30
MSLP
1013.26 1013.13 1012.96 1012.75 1012.67 1012.63 1012.46 1012.13 1011.85 1011.62 1011.76 1012.03 1012.39 1012.77 1013.04 1013.17 1013.21 1013.52 1013.80 1014.16 1014.58 1014.86
1013.51 1013.28 1013.25 1012.99 1012.83 1012.86 1012.72 1012.54 1012.39 1012.14 1011.91 1012.01 1012.25 1012.40 1012.80 1012.88 1012.91 1013.08 1013.44 1013.77 1014.14 1014.84
1013.85 1013.62 1013.47 1013.30 1013.24 1013.20 1013.09 1012.89 1012.69 1012.56 1012.51 1012.50 1012.39 1012.35 1012.66 1012.84 1012.98 1013.14 1013.22 1013.46 1013.86 1014.70
1014.32 1014.13 1013.91 1013.84 1013.77 1013.79 1013.67 1013.50 1013.27 1013.04 1012.89 1012.70 1012.70 1012.80 1012.90 1013.08 1013.30 1013.48 1013.86 1014.06 1014.40 1015.11
1014.94 1014.84 1014.81 1014.72 1014.59 1014.46 1014.38 1014.18 1013.99 1013.74 1013.49 1013.31 1013.30 1013.31 1013.43 1013.63 1013.79 1014.08 1014.36 1014.71 1014.89 1015.73
1015.84 1015.78 1015.70 1015.66 1015.52 1015.27 1014.95 1014.81 1014.69 1014.50 1014.30 1014.31 1014.18 1014.11 1014.25 1014.29 1014.72 1015.24 1014.67 1015.13 1015.41 1015.78
1016.61 1016.54 1016.44 1016.38 1016.20 1016.14 1015.86 1015.57 1015.28 1015.17 1015.16 1015.16 1015.29 1015.15 1015.43 1015.41 1015.67 1016.11 1015.75 1015.89 1015.65 1016.00
1017.10 1016.98 1017.02 1016.96 1017.18 1017.10 1016.53 1016.14 1015.79 1015.68 1015.71 1015.71 1016.10 1015.97 1016.24 1016.56 1016.43 1016.61 1016.48 1016.47 1016.82 1017.15
1017.57 1017.62 1017.57 1017.72 1017.80 1017.50 1016.98 1016.68 1016.54 1016.50 1016.51 1016.46 1016.63 1016.84 1016.78 1016.87 1016.93 1016.86 1017.05 1017.53 1018.00 1017.85
1018.11 1018.19 1018.12 1018.26 1018.31 1018.20 1017.70 1017.72 1017.73 1017.58 1017.51 1017.48 1017.51 1017.50 1017.58 1017.52 1017.54 1017.70 1018.15 1018.38 1018.83 1018.69
1018.56 1018.62 1018.77 1018.80 1018.84 1018.68 1018.71 1018.77 1018.77 1018.81 1018.72 1018.55 1018.45 1018.37 1018.24 1018.05 1018.21 1018.50 1018.90 1019.19 1019.37 1019.52
1018.97 1019.11 1019.27 1019.32 1019.40 1019.47 1019.60 1019.62 1019.65 1019.67 1019.60 1019.41 1019.27 1019.02 1018.97 1019.00 1019.22 1019.38 1019.56 1019.60 1019.66 1019.86
1019.54 1019.67 1019.83 1019.94 1020.12 1020.25 1020.32 1020.19 1020.16 1020.23 1020.07 1019.90 1019.76 1019.57 1019.47 1019.47 1019.52 1019.78 1019.84 1019.92 1020.08 1020.10
1019.89 1020.07 1020.38 1020.54 1020.67 1020.68 1020.46 1020.37 1020.49 1020.49 1020.25 1020.05 1019.94 1019.84 1019.75 1019.73 1019.92 1020.11 1020.24 1020.32 1020.38 1020.35
Wind_Speed
7 3 3 3 4 4 3 4 4 5 5 6 5 5 8 6 7 7 8 12 7 6
7 7 5 7 5 4 6 7 9 8 4 5 5 6 5 6 7 6 6 8 7 4
6 7 6 5 5 6 6 7 8 7 7 5 3 3 4 3 2 3 3 3 6 4
7 7 7 6 7 6 6 7 6 7 6 7 6 4 1 1 1 0 3 4 5 5
7 7 7 8 8 8 7 6 7 6 5 5 6 4 3 3 1 4 5 5 7 5
7 7 7 7 7 8 7 7 7 7 9 9 8 7 6 4 4 1 6 6 6 7
7 7 7 8 8 7 6 7 7 8 8 9 8 8 6 5 5 4 6 6 7 7
6 6 6 7 6 5 5 5 7 8 8 8 6 5 6 6 6 7 8 9 7 5
5 5 6 6 6 7 8 9 8 8 7 7 6 12 11 9 7 9 10 8 8 7
6 6 6 7 7 7 9 9 10 10 10 9 8 14 15 16 8 9 8 7 5 5
6 7 7 7 7 8 8 8 7 8 9 7 8 14 16 17 9 8 8 7 6 5
7 7 6 7 6 7 7 7 7 7 8 7 7 15 15 11 7 6 5 3 2 2
6 7 6 6 6 5 4 5 5 6 3 9 3 10 9 5 3 3 2 2 1 4
6 6 5 4 2 4 4 4 3 4 2 3 6 7 10 11 5 3 3 2 2 1
Wind_Direction
312 295 295 322 322 311 307 303 313 235 195 211 207 239 248 236 228 230 218 217 217 207
350 6 358 348 347 352 353 359 0 358 250 212 225 198 231 241 236 222 224 228 223 221
346 0 354 352 8 4 356 360 356 354 4 352 278 224 221 246 276 235 238 189 181 156
4 1 356 22 24 15 11 5 351 356 356 359 2 356 88 70 6 232 92 72 112 107
18 11 16 20 17 11 9 18 8 1 14 14 25 8 53 73 56 131 120 106 104 98
19 16 23 22 12 14 12 20 22 24 29 20 26 30 32 70 52 53 116 124 129 132
27 26 21 18 16 13 15 20 38 44 41 35 28 33 30 56 66 57 80 107 103 117
33 31 30 28 13 2 29 38 48 52 49 49 40 52 55 58 77 81 66 60 65 68
32 39 45 39 42 43 44 43 45 50 53 59 62 69 81 83 79 74 74 66 50 47
46 54 49 53 49 43 46 46 48 52 57 56 65 82 82 80 69 72 64 64 58 62
54 55 53 60 53 54 57 57 53 48 42 51 66 76 81 81 73 71 69 66 64 73
58 67 63 61 57 61 65 60 57 67 69 59 58 71 70 64 59 67 75 85 65 96
70 82 61 64 64 69 79 82 83 71 60 85 53 69 72 100 107 105 115 149 113 37
96 92 89 85 86 109 110 115 113 121 218 117 80 47 50 53 51 45 60 64 47 76